| time (UTC) | temp C | wind direction | speed KPH | gust KPH | rain 1hr cm | rain 24hr cm | rain mn cm | humidity % | barometer mb |
| 20260504050421 | 7 | 143 | 4.8 | 11.3 | 0.00 | 0.00 | 0.00 | 60 | 1012.1 |
| 20260504045419 | 7 | 217 | 3.2 | 8.0 | 0.00 | 0.00 | 0.00 | 60 | 1012.1 |
| 20260504044419 | 7 | 128 | 3.2 | 4.8 | 0.00 | 0.00 | 0.00 | 59 | 1012.4 |
| 20260504043419 | 7 | 238 | 3.2 | 6.4 | 0.00 | 0.00 | 0.00 | 58 | 1012.3 |
| 20260504042419 | 7 | 213 | 3.2 | 8.0 | 0.00 | 0.00 | 0.00 | 59 | 1012.1 |
| 20260504041418 | 7 | 173 | 1.6 | 3.2 | 0.00 | 0.00 | 0.00 | 59 | 1012.1 |
| 20260504040412 | 7 | 202 | 9.7 | 11.3 | 0.00 | 0.00 | 0.00 | 57 | 1012.3 |
| 20260504035411 | 7 | 193 | 0.0 | 6.4 | 0.00 | 0.00 | 0.00 | 57 | 1012.3 |
| 20260504034411 | 7 | 146 | 3.2 | 6.4 | 0.00 | 0.00 | 0.00 | 57 | 1012.0 |
| 20260504033406 | 7 | 111 | 3.2 | 9.7 | 0.00 | 0.00 | 0.00 | 56 | 1012.1 |
| 20260504032405 | 7 | 188 | 3.2 | 6.4 | 0.00 | 0.00 | 0.00 | 56 | 1012.3 |
| 20260504031405 | 7 | 150 | 3.2 | 4.8 | 0.00 | 0.00 | 0.00 | 56 | 1012.1 |
| 20260504030404 | 7 | 13 | 1.6 | 4.8 | 0.00 | 0.00 | 0.00 | 56 | 1012.4 |
| 20260504025403 | 7 | 113 | 3.2 | 4.8 | 0.00 | 0.00 | 0.00 | 56 | 1012.1 |
| 20260504024402 | 7 | 121 | 3.2 | 4.8 | 0.00 | 0.00 | 0.00 | 56 | 1012.3 |
| 20260504023401 | 7 | 150 | 0.0 | 3.2 | 0.00 | 0.00 | 0.00 | 55 | 1012.4 |
| 20260504022400 | 7 | 248 | 3.2 | 3.2 | 0.00 | 0.00 | 0.00 | 54 | 1012.3 |
| 20260504021359 | 7 | 58 | 1.6 | 4.8 | 0.00 | 0.00 | 0.00 | 55 | 1012.1 |
| 20260504020359 | 7 | 107 | 3.2 | 4.8 | 0.00 | 0.00 | 0.00 | 55 | 1012.4 |
| 20260504015357 | 7 | 80 | 3.2 | 4.8 | 0.00 | 0.00 | 0.00 | 55 | 1012.1 |
| 20260504014355 | 7 | 119 | 3.2 | 4.8 | 0.00 | 0.00 | 0.00 | 54 | 1012.5 |
| 20260504013350 | 8 | 134 | 3.2 | 4.8 | 0.00 | 0.00 | 0.00 | 53 | 1012.1 |
| 20260504012350 | 8 | 134 | 3.2 | 4.8 | 0.00 | 0.00 | 0.00 | 52 | 1012.0 |
| 20260504011350 | 8 | 38 | 0.0 | 4.8 | 0.00 | 0.00 | 0.00 | 53 | 1011.9 |
| 20260504010348 | 8 | 180 | 3.2 | 4.8 | 0.00 | 0.00 | 0.00 | 53 | 1011.8 |
| 20260504005347 | 8 | 115 | 1.6 | 3.2 | 0.00 | 0.00 | 0.00 | 53 | 1011.6 |
| 20260504004342 | 8 | 165 | 0.0 | 4.8 | 0.00 | 0.00 | 0.00 | 50 | 1011.7 |
| 20260504003341 | 8 | 111 | 3.2 | 3.2 | 0.00 | 0.00 | 0.00 | 49 | 1011.6 |
| 20260504002340 | 8 | 113 | 1.6 | 4.8 | 0.00 | 0.00 | 0.00 | 50 | 1011.5 |
| 20260504001340 | 9 | 254 | 1.6 | 6.4 | 0.00 | 0.00 | 0.00 | 51 | 1011.4 |
| 20260504000340 | 10 | 334 | 0.0 | 3.2 | 0.00 | 0.00 | 0.00 | 49 | 1011.4 |
| 20260503235335 | 10 | 156 | 3.2 | 9.7 | 0.00 | 0.00 | 0.00 | 46 | 1011.2 |
| 20260503234330 | 10 | 217 | 3.2 | 9.7 | 0.00 | 0.00 | 0.00 | 46 | 1011.3 |
| 20260503233329 | 11 | 256 | 11.3 | 12.9 | 0.00 | 0.00 | 0.00 | 44 | 1011.2 |
| 20260503232329 | 11 | 217 | 12.9 | 16.1 | 0.00 | 0.00 | 0.00 | 43 | 1011.1 |
| 20260503231329 | 11 | 233 | 3.2 | 6.4 | 0.00 | 0.00 | 0.00 | 45 | 1011.1 |
| 20260503230328 | 11 | 235 | 3.2 | 9.7 | 0.00 | 0.00 | 0.00 | 44 | 1011.3 |
| 20260503225328 | 12 | 347 | 6.4 | 11.3 | 0.00 | 0.00 | 0.00 | 42 | 1011.0 |
| 20260503224327 | 11 | 60 | 6.4 | 8.0 | 0.00 | 0.00 | 0.00 | 45 | 1011.0 |
| 20260503223322 | 11 | 248 | 4.8 | 6.4 | 0.00 | 0.00 | 0.00 | 47 | 1011.1 |
| 20260503222322 | 11 | 331 | 3.2 | 8.0 | 0.00 | 0.00 | 0.00 | 47 | 1011.1 |
| 20260503221319 | 11 | 19 | 6.4 | 6.4 | 0.00 | 0.00 | 0.00 | 45 | 1011.2 |
| 20260503220317 | 12 | 273 | 8.0 | 11.3 | 0.00 | 0.00 | 0.00 | 44 | 1011.0 |
| 20260503215317 | 11 | 292 | 6.4 | 6.4 | 0.00 | 0.00 | 0.00 | 45 | 1011.2 |
| 20260503214312 | 11 | 257 | 8.0 | 11.3 | 0.00 | 0.00 | 0.00 | 45 | 1011.2 |
| 20260503213307 | 11 | 355 | 1.6 | 9.7 | 0.00 | 0.00 | 0.00 | 46 | 1011.1 |
| 20260503212301 | 11 | 0 | 3.2 | 8.0 | 0.00 | 0.00 | 0.00 | 46 | 1011.1 |
| 20260503211301 | 11 | 279 | 6.4 | 14.5 | 0.00 | 0.00 | 0.00 | 46 | 1011.0 |
| 20260503210259 | 11 | 241 | 3.2 | 12.9 | 0.00 | 0.00 | 0.00 | 46 | 1011.0 |
| 20260503205256 | 11 | 311 | 9.7 | 12.9 | 0.00 | 0.00 | 0.00 | 45 | 1010.8 |
| 20260503204256 | 11 | 231 | 3.2 | 20.9 | 0.00 | 0.00 | 0.00 | 46 | 1010.9 |
| 20260503203251 | 11 | 279 | 11.3 | 14.5 | 0.00 | 0.00 | 0.00 | 45 | 1011.1 |
| 20260503202246 | 11 | 312 | 3.2 | 11.3 | 0.00 | 0.00 | 0.00 | 44 | 1011.1 |
| 20260503201247 | 11 | 322 | 0.0 | 17.7 | 0.00 | 0.00 | 0.00 | 44 | 1011.1 |
| 20260503200245 | 11 | 15 | 3.2 | 8.0 | 0.00 | 0.00 | 0.00 | 45 | 1011.0 |
| 20260503195245 | 11 | 138 | 3.2 | 8.0 | 0.00 | 0.00 | 0.00 | 44 | 1011.5 |
| 20260503194244 | 11 | 329 | 9.7 | 22.5 | 0.00 | 0.00 | 0.00 | 42 | 1011.3 |
| 20260503193243 | 11 | 338 | 0.0 | 19.3 | 0.00 | 0.00 | 0.00 | 44 | 1011.5 |
| 20260503192239 | 11 | 345 | 6.4 | 19.3 | 0.00 | 0.00 | 0.00 | 42 | 1011.7 |
| 20260503191234 | 12 | 345 | 3.2 | 8.0 | 0.00 | 0.00 | 0.00 | 43 | 1011.4 |
| 20260503190233 | 12 | 234 | 3.2 | 20.9 | 0.00 | 0.00 | 0.00 | 46 | 1011.7 |
| 20260503185232 | 11 | 236 | 8.0 | 14.5 | 0.00 | 0.00 | 0.00 | 40 | 1011.8 |
| 20260503184229 | 11 | 167 | 3.2 | 29.0 | 0.00 | 0.00 | 0.00 | 43 | 1011.7 |
| 20260503183228 | 11 | 320 | 6.4 | 19.3 | 0.00 | 0.00 | 0.00 | 41 | 1011.9 |
| 20260503182225 | 11 | 284 | 9.7 | 17.7 | 0.00 | 0.00 | 0.00 | 39 | 1011.8 |
| 20260503181224 | 11 | 162 | 1.6 | 16.1 | 0.00 | 0.00 | 0.00 | 42 | 1012.1 |
| 20260503180219 | 11 | 103 | 1.6 | 24.1 | 0.00 | 0.00 | 0.00 | 40 | 1012.0 |
| 20260503175219 | 11 | 263 | 8.0 | 20.9 | 0.00 | 0.00 | 0.00 | 41 | 1012.3 |
| 20260503174218 | 10 | 258 | 6.4 | 12.9 | 0.00 | 0.00 | 0.00 | 42 | 1012.4 |
| 20260503173215 | 9 | 271 | 6.4 | 19.3 | 0.00 | 0.00 | 0.00 | 44 | 1012.6 |
| 20260503172215 | 10 | 0 | 4.8 | 17.7 | 0.00 | 0.00 | 0.00 | 43 | 1012.6 |
| 20260503171214 | 10 | 298 | 8.0 | 11.3 | 0.00 | 0.00 | 0.00 | 45 | 1012.7 |
| 20260503170214 | 9 | 313 | 8.0 | 17.7 | 0.00 | 0.00 | 0.00 | 45 | 1012.8 |
| 20260503160159 | 7 | 352 | 8.0 | 20.9 | 0.00 | 0.00 | 0.00 | 49 | 1013.2 |
| 20260503150142 | 6 | 341 | 11.3 | 17.7 | 0.00 | 0.00 | 0.00 | 50 | 1013.7 |
| 20260503140135 | 5 | 345 | 3.2 | 19.3 | 0.00 | 0.00 | 0.00 | 55 | 1013.6 |
| 20260503131128 | 4 | 0 | 8.0 | 17.7 | 0.00 | 0.00 | 0.00 | 58 | 1013.7 |
| 20260503130123 | 3 | 351 | 4.8 | 16.1 | 0.00 | 0.00 | 0.00 | 57 | 1013.8 |
| 20260503120111 | 3 | 324 | 3.2 | 9.7 | 0.00 | 0.00 | 0.00 | 74 | 1013.6 |
| 20260503081024 | 0 | 29 | 6.4 | 8.0 | 0.00 | 0.00 | 0.00 | 86 | 1012.5 |
| 20260503072014 | 0 | 15 | 6.4 | 6.4 | 0.00 | 0.00 | 0.00 | 83 | 1012.6 |
| 20260503071014 | 1 | 38 | 9.7 | 9.7 | 0.00 | 0.00 | 0.00 | 82 | 1012.6 |